[[{"header":{"parameterUnit":"m.s-1","parameterCategory":1,"la1":30.2991,"la2":30.254,"lo1":-89.0895,"lo2":-89.0444,"dy":0.0017,"dx":0.0017,"nx":28,"ny":28,"refTime":"2023-10-06T21:00:00:Z","depth":0,"parameterNumber":2,"parameterNumberName":"U-component_of_WINDS"},"data":[0,0,0,0,0,0,0,0,0,0,0,0,0,0,0,0,0,0,0,0,0,0,0,0,0,0,0,0,0,0,0,0,0,0,0,0,0,0,0,0,0,0,0,0,0,0,0,0,0,0,0,0,0,0,0,0,0,0,-1.966,-1.966,0,-1.97,-1.97,-1.9701,-1.9671,-1.967,-1.9669,-1.9667,-1.9708,-1.971,-1.9712,0,0,0,0,0,0,0,0,0,0,0,0,0,-1.9555,-1.9557,-1.966,-1.966,-1.9661,-1.97,-1.97,-1.9701,-1.9671,-1.967,-1.9668,-1.9667,-1.9707,-1.971,-1.9712,0,0,0,0,0,0,0,0,0,0,0,0,0,-1.9598,-1.9558,-1.9659,-1.9651,-1.965,-1.97,-1.97,-1.9701,-1.9672,-1.967,-1.9668,-1.9666,-1.9706,-1.9709,-1.9713,-1.9773,0,0,-1.9723,-1.9725,0,0,0,0,0,0,0,0,-1.9596,-1.9602,-1.9651,-1.9651,-1.9651,-1.9679,-1.9678,-1.9725,-1.9672,-1.9664,-1.9667,-1.9665,-1.97,-1.9703,-1.9715,-1.9775,-1.9777,-1.9724,-1.9726,-1.9727,-1.9728,0,0,0,0,0,0,0,-1.9593,-1.96,-1.9675,-1.9652,-1.9652,-1.9644,-1.9648,-1.9687,-1.9692,-1.9664,-1.9662,-1.9667,-1.9699,-1.9712,-1.9716,-1.9777,-1.9723,-1.9727,-1.9729,-1.973,-1.9888,-1.989,0,0,0,0,0,0,-1.9591,-1.9598,-1.9674,-1.9677,-1.9618,-1.9647,-1.9652,-1.9672,-1.9691,-1.9693,-1.9669,-1.9666,-1.9707,-1.9712,-1.9717,-1.9789,-1.9727,-1.973,-1.9732,-1.9886,-1.9888,-1.9891,0,0,0,0,0,0,-1.9589,-1.9598,-1.9673,-1.9637,-1.9646,-1.9651,-1.9674,-1.9673,-1.9686,-1.9695,-1.9696,-1.9682,-1.9706,-1.9712,-1.9759,-1.979,-1.9732,-1.9735,-1.9883,-1.9887,-1.989,-1.9934,0,0,0,0,0,0,-1.9586,-1.9597,-1.9621,-1.9638,-1.9648,-1.9715,-1.9676,-1.9676,-1.9693,-1.9689,-1.9707,-1.9708,-1.9705,-1.9754,-1.9763,-1.9794,-1.9738,-1.9881,-1.9885,-1.9889,-1.993,-1.9938,-1.9945,0,0,0,0,0,-1.9582,-1.9632,-1.9622,-1.9632,-1.9677,-1.9717,-1.9722,-1.9718,-1.9695,-1.9719,-1.9724,-1.9708,-1.9785,-1.976,-1.9769,-1.9801,-1.9879,-1.9884,-1.9888,-1.9926,-1.9936,-1.9945,0,0,0,0,0,0,-1.9618,-1.9634,-1.9624,-1.968,-1.9697,-1.9712,-1.9741,-1.9729,-1.9753,-1.9748,-1.9741,-1.9745,-1.9795,-1.9802,-1.9774,-1.986,-1.9828,-1.9835,-1.9854,-1.9864,-1.9871,-1.9869,-1.9741,0,0,0,0,0,-1.9633,-1.9664,-1.9675,-1.9724,-1.9733,-1.9736,-1.9753,-1.9747,-1.9765,-1.9772,-1.9781,-1.9798,-1.9826,-1.9845,-1.9872,-1.993,-1.9933,-1.9957,-1.9965,-1.9971,-1.9977,-2.0008,-2.0019,-1.9906,-1.9906,-1.9906,0,0,-1.9663,-1.9675,-1.9696,-1.9732,-1.9744,-1.9776,-1.9742,-1.9777,-1.9801,-1.9777,-1.9823,-1.9829,-1.9848,-1.9901,-1.9925,-1.9909,-2.0009,-1.9977,-1.9982,-1.9985,-2.0015,-2.0025,-2.0035,-1.991,-1.9909,-1.9909,0,0,-1.9735,-1.9747,-1.9789,-1.9803,-1.9823,-1.9824,-1.9834,-1.985,-1.9854,-1.9899,-1.9882,-1.9909,-1.9958,-1.9972,-1.9985,-2.0061,-2.0047,-2.007,-2.0111,-2.0142,-2.0151,-2.0159,-2.0186,-2.0196,-2.0076,-2.0076,-2.0076,0,-1.977,-1.9819,-1.9812,-1.9849,-1.9865,-1.9845,-1.9887,-1.99,-1.9928,-1.9939,-1.9921,-1.9981,-1.9992,-2.0048,-2.0067,-2.0078,-2.0089,-2.0068,-2.015,-2.0158,-2.0165,-2.0191,-2.0201,-2.0079,-2.0078,-2.0078,-2.0078,0,-1.9861,-1.9894,-1.9926,-1.9953,-1.9972,-2.0012,-2.0011,-2.0031,-2.0024,-2.0026,-2.0072,-2.0085,-2.0113,-2.0126,-2.0119,-2.018,-2.017,-2.0151,-2.0119,-2.0179,-2.0203,-2.0213,-2.0083,-2.0082,-2.0081,-2.008,0,0,-1.9958,-1.9981,-1.9993,-2.0005,-2.0024,-2.005,-2.0087,-2.0116,-2.0133,-2.0152,-2.0184,-2.0225,-2.0207,-2.0223,-2.0217,-2.0243,-2.0303,-2.0221,-2.0221,-2.0236,-2.0371,-2.0386,-2.0398,-2.0293,-2.0295,-2.0296,-2.037,0,-2.0032,-2.0098,-2.0093,-2.0156,-2.0187,-2.0167,-2.02,-2.0215,-2.0218,-2.0244,-2.0247,-2.0277,-2.0251,-2.026,-2.0286,-2.029,-2.033,-2.0285,-2.0322,-2.0324,-2.0319,-2.0411,-2.0427,-2.0496,-2.0379,-2.0381,-2.0382,0,-2.0127,-2.0149,-2.0215,-2.023,-2.0243,-2.0273,-2.0298,-2.0323,-2.0339,-2.0339,-2.0356,-2.0346,-2.0383,-2.0349,-2.04,-2.0369,-2.0384,-2.0388,-2.0391,-2.0395,-2.0357,-2.0418,-2.0518,-2.0529,-2.0397,-2.0396,-2.0395,0,-2.0192,-2.0239,-2.0284,-2.0295,-2.0313,-2.0334,-2.0343,-2.0357,-2.0375,-2.0396,-2.0407,-2.0432,-2.0446,-2.0466,-2.0462,-2.0437,-2.0514,-2.048,-2.0515,-2.0515,-2.0533,-2.0532,-2.0638,-2.0541,-2.0541,-2.0541,-2.0541,0,-2.0275,-2.0316,-2.0314,-2.0342,-2.0387,-2.038,-2.0425,-2.043,-2.0443,-2.0472,-2.0456,-2.0483,-2.0476,-2.0502,-2.0499,-2.0542,-2.0548,-2.0549,-2.0548,-2.0551,-2.0551,-2.0562,-2.0557,-2.0544,-2.0543,-2.0543,-2.0542,0,-2.0356,-2.0356,-2.0404,-2.0417,-2.0422,-2.0454,-2.0465,-2.0491,-2.0493,-2.0529,-2.0537,-2.0539,-2.0569,-2.0567,-2.06,-2.0598,-2.0651,-2.0644,-2.0646,-2.0645,-2.0681,-2.0678,-2.0797,-2.0813,-2.0705,-2.0706,-2.0707,0,-2.041,-2.0441,-2.0457,-2.0476,-2.0486,-2.0515,-2.0532,-2.0526,-2.0544,-2.0565,-2.0588,-2.0617,-2.064,-2.0688,-2.0692,-2.0718,-2.0712,-2.0752,-2.0715,-2.0717,-2.0713,-2.0712,-2.0715,-2.0759,-2.076,-2.0761,-2.0762,0,-2.0505,-2.0503,-2.0529,-2.0555,-2.0576,-2.0596,-2.0614,-2.0629,-2.0625,-2.0646,-2.0677,-2.0694,-2.0728,-2.0757,-2.0781,-2.0789,-2.0775,-2.0773,-2.0783,-2.0787,-2.0787,-2.0788,-2.0667,-2.0771,-2.077,-2.0769,-2.0769,-2.0769,-2.0575,-2.0602,-2.0617,-2.0646,-2.0659,-2.0676,-2.0701,-2.0706,-2.0731,-2.0759,-2.0753,-2.0788,-2.0802,-2.0833,-2.0843,-2.087,-2.0855,-2.0869,-2.0873,-2.0877,-2.0881,-2.0782,-2.0874,-2.0874,-2.0873,-2.0873,-2.0873,0,-2.067,-2.0679,-2.0706,-2.0731,-2.0754,-2.0738,-2.0757,-2.0777,-2.0808,-2.0823,-2.0845,-2.088,-2.0908,-2.0913,-2.0939,-2.0959,-2.0953,-2.0966,-2.0965,-2.0967,-2.0892,-2.0882,-2.0971,-2.0971,-2.0971,-2.0971,-2.0971,-2.0971,-2.0722,-2.0767,-2.0767,-2.0817,-2.0825,-2.086,-2.0872,-2.0887,-2.0899,-2.0939,-2.0961,-2.0965,-2.0976,-2.1003,-2.1027,-2.1027,-2.1038,-2.1054,-2.1052,-2.0982,-2.0973,-2.0963,-2.0953,-2.1056,-2.1056,-2.1125,-2.1125,-2.1126]},{"header":{"parameterUnit":"m.s-1","parameterCategory":1,"la1":30.2991,"la2":30.254,"lo1":-89.0895,"lo2":-89.0444,"dy":0.0017,"dx":0.0017,"nx":28,"ny":28,"refTime":"2023-10-06T21:00:00:Z","depth":0,"parameterNumber":3,"parameterNumberName":"V-component_of_WINDS"},"data":[0,0,0,0,0,0,0,0,0,0,0,0,0,0,0,0,0,0,0,0,0,0,0,0,0,0,0,0,0,0,0,0,0,0,0,0,0,0,0,0,0,0,0,0,0,0,0,0,0,0,0,0,0,0,0,0,0,0,-7.8386,-7.8387,0,-7.8451,-7.8452,-7.8453,-7.8377,-7.8374,-7.8371,-7.8369,-7.8429,-7.8433,-7.8437,0,0,0,0,0,0,0,0,0,0,0,0,0,-7.8191,-7.8195,-7.8386,-7.8387,-7.8388,-7.8451,-7.8452,-7.8453,-7.8377,-7.8374,-7.8371,-7.8367,-7.8427,-7.8432,-7.8438,0,0,0,0,0,0,0,0,0,0,0,0,0,-7.8267,-7.8196,-7.8386,-7.8358,-7.8356,-7.8451,-7.8452,-7.8453,-7.8378,-7.8374,-7.837,-7.8366,-7.8426,-7.8432,-7.8438,-7.8562,0,0,-7.8458,-7.846,0,0,0,0,0,0,0,0,-7.8263,-7.8275,-7.8361,-7.836,-7.8358,-7.8402,-7.8405,-7.8489,-7.8379,-7.837,-7.8369,-7.8364,-7.8423,-7.8429,-7.845,-7.8565,-7.8567,-7.8458,-7.8462,-7.8465,-7.8467,0,0,0,0,0,0,0,-7.8258,-7.8271,-7.8412,-7.8363,-7.8361,-7.834,-7.8346,-7.8421,-7.8419,-7.837,-7.8365,-7.8374,-7.8421,-7.8445,-7.8451,-7.8568,-7.8458,-7.8464,-7.8468,-7.847,-7.8787,-7.8792,0,0,0,0,0,0,-7.8257,-7.8268,-7.841,-7.8414,-7.83,-7.8347,-7.8354,-7.8392,-7.8418,-7.8418,-7.8377,-7.837,-7.8436,-7.8444,-7.8453,-7.86,-7.8465,-7.8471,-7.8474,-7.8783,-7.8788,-7.8793,0,0,0,0,0,0,-7.8253,-7.827,-7.8407,-7.8339,-7.8355,-7.8355,-7.8398,-7.8396,-7.8419,-7.8424,-7.8422,-7.8402,-7.8433,-7.8444,-7.8536,-7.8601,-7.8473,-7.8479,-7.8777,-7.8784,-7.8791,-7.8895,0,0,0,0,0,0,-7.8248,-7.8269,-7.8318,-7.8341,-7.8359,-7.8491,-7.8402,-7.84,-7.8431,-7.8422,-7.8446,-7.8446,-7.843,-7.8527,-7.8542,-7.8607,-7.8484,-7.8771,-7.878,-7.8788,-7.8885,-7.8904,-7.8921,0,0,0,0,0,-7.8241,-7.8343,-7.832,-7.8338,-7.842,-7.8495,-7.8505,-7.8486,-7.8436,-7.8484,-7.8487,-7.8445,-7.8592,-7.8537,-7.8554,-7.8622,-7.8767,-7.8778,-7.8788,-7.8878,-7.8901,-7.892,0,0,0,0,0,0,-7.8324,-7.8345,-7.8321,-7.8434,-7.8464,-7.8482,-7.8542,-7.8511,-7.8554,-7.8544,-7.8517,-7.8523,-7.8621,-7.863,-7.8569,-7.8743,-7.8671,-7.8685,-7.8733,-7.8755,-7.8772,-7.8768,-7.8489,0,0,0,0,0,-7.8356,-7.8418,-7.8431,-7.853,-7.8546,-7.8542,-7.8573,-7.8557,-7.8586,-7.8597,-7.8607,-7.8634,-7.8686,-7.8721,-7.8769,-7.8886,-7.889,-7.8941,-7.8959,-7.8973,-7.8986,-7.9048,-7.9071,-7.8827,-7.8827,-7.8827,0,0,-7.8422,-7.8441,-7.8481,-7.8547,-7.8568,-7.863,-7.8553,-7.8621,-7.8667,-7.8607,-7.8695,-7.8703,-7.8732,-7.8837,-7.8884,-7.8848,-7.9054,-7.8986,-7.8998,-7.9003,-7.9062,-7.9085,-7.9105,-7.8834,-7.8833,-7.8832,0,0,-7.8574,-7.8595,-7.868,-7.8703,-7.8737,-7.8733,-7.8754,-7.8777,-7.8781,-7.887,-7.8826,-7.8879,-7.8969,-7.8992,-7.9015,-7.9177,-7.914,-7.9193,-7.9285,-7.9346,-7.9366,-7.9382,-7.944,-7.9461,-7.9206,-7.9206,-7.9206,0,-7.8651,-7.8745,-7.8726,-7.8799,-7.8829,-7.878,-7.8865,-7.8887,-7.8934,-7.8955,-7.8915,-7.9028,-7.9044,-7.9154,-7.9194,-7.9214,-7.9236,-7.919,-7.9365,-7.9381,-7.9397,-7.9452,-7.9474,-7.9212,-7.9212,-7.9211,-7.921,0,-7.8838,-7.8904,-7.8968,-7.9018,-7.9055,-7.9133,-7.9124,-7.9164,-7.9144,-7.9145,-7.9235,-7.9253,-7.9304,-7.9328,-7.9309,-7.9436,-7.9413,-7.9369,-7.9296,-7.9427,-7.9478,-7.9499,-7.9221,-7.9219,-7.9217,-7.9216,0,0,-7.9044,-7.9084,-7.9107,-7.913,-7.9164,-7.9214,-7.9289,-7.9342,-7.9376,-7.941,-7.9472,-7.955,-7.951,-7.9537,-7.9519,-7.9574,-7.9701,-7.9523,-7.9523,-7.9556,-7.9843,-7.9876,-7.99,-7.9677,-7.9681,-7.9684,-7.984,0,-7.9197,-7.9331,-7.9316,-7.9443,-7.9504,-7.9458,-7.9524,-7.9551,-7.9554,-7.9604,-7.9605,-7.9661,-7.9604,-7.962,-7.9672,-7.9675,-7.9758,-7.9663,-7.9733,-7.9736,-7.9728,-7.9927,-7.9962,-8.0109,-7.986,-7.9863,-7.9866,0,-7.9393,-7.9438,-7.9572,-7.9598,-7.9622,-7.9682,-7.9729,-7.9778,-7.9808,-7.9805,-7.9837,-7.981,-7.9884,-7.981,-7.9911,-7.9847,-7.9874,-7.988,-7.9885,-7.9891,-7.9809,-7.9938,-8.0155,-8.0177,-7.9897,-7.9895,-7.9892,0,-7.9531,-7.9623,-7.9716,-7.9736,-7.9768,-7.9812,-7.9827,-7.9852,-7.9885,-7.9925,-7.9946,-7.9994,-8.002,-8.0057,-8.0043,-7.9991,-8.0147,-8.0072,-8.0147,-8.0147,-8.0181,-8.018,-8.0406,-8.0199,-8.0199,-8.0199,-8.0198,0,-7.9703,-7.9787,-7.9778,-7.9835,-7.9927,-7.9909,-7.9999,-8.0008,-8.0032,-8.0088,-8.0051,-8.0104,-8.0082,-8.0134,-8.0123,-8.0209,-8.0221,-8.022,-8.0216,-8.0224,-8.0224,-8.0241,-8.0231,-8.0204,-8.0203,-8.0202,-8.0201,0,-7.9872,-7.987,-7.9968,-7.9991,-7.9999,-8.0066,-8.0085,-8.0138,-8.0138,-8.0209,-8.0225,-8.0224,-8.0283,-8.0273,-8.0337,-8.033,-8.0437,-8.0421,-8.0428,-8.0425,-8.05,-8.0493,-8.0745,-8.0777,-8.055,-8.0552,-8.0554,0,-7.9983,-8.0046,-8.0078,-8.0115,-8.0134,-8.0192,-8.0227,-8.021,-8.0247,-8.0286,-8.0334,-8.039,-8.0433,-8.0529,-8.0533,-8.0582,-8.0566,-8.0651,-8.0573,-8.0579,-8.0568,-8.0564,-8.057,-8.0667,-8.0669,-8.0671,-8.0673,0,-8.0179,-8.0175,-8.0227,-8.028,-8.0322,-8.0361,-8.0397,-8.0428,-8.0415,-8.0458,-8.0519,-8.0553,-8.062,-8.0676,-8.0722,-8.0734,-8.0702,-8.0698,-8.0718,-8.0726,-8.0728,-8.0728,-8.0471,-8.0692,-8.069,-8.0689,-8.0688,-8.0687,-8.0322,-8.0377,-8.0409,-8.0468,-8.0494,-8.0528,-8.0579,-8.0587,-8.0638,-8.0693,-8.0679,-8.0749,-8.0776,-8.0835,-8.0853,-8.0905,-8.0874,-8.0902,-8.091,-8.0917,-8.0927,-8.072,-8.0914,-8.0913,-8.0912,-8.0912,-8.0912,0,-8.0517,-8.0536,-8.0591,-8.0643,-8.0689,-8.0657,-8.0695,-8.0735,-8.0797,-8.0827,-8.0872,-8.0942,-8.0996,-8.1004,-8.1055,-8.1096,-8.1082,-8.111,-8.1106,-8.111,-8.0952,-8.093,-8.112,-8.112,-8.112,-8.112,-8.112,-8.112,-8.0624,-8.0716,-8.0716,-8.082,-8.0836,-8.0906,-8.0931,-8.0962,-8.0985,-8.1066,-8.1112,-8.1118,-8.1139,-8.1192,-8.1239,-8.124,-8.1261,-8.1294,-8.129,-8.1142,-8.1121,-8.1101,-8.108,-8.1299,-8.1299,-8.1443,-8.1445,-8.1446]}]]